User: anonymous   Login
Location: Newark
(51.0500°N, 12.4500°E)
Time: 08:56:48
(UTC+00:00)
Language:

Tiros 1 - Orbit

View from above orbital plane
View from above orbital plane
View from above satellite
View from above satellite

Ground track
Ground track

The orbit data is extracted from the following two-line orbital elements,

1    29U 60002B   20222.80234455 -.00000157 +00000-0 +76962-5 0  9997
2    29 048.3801 056.8466 0023661 100.8869 259.4706 14.74365949226412
Epoch (UTC): 09 August 2020 19:15:22
Eccentricity: 0.0023661
inclination: 48.3801°
perigee height: 630 km
apogee height: 664 km
right ascension of ascending node: 56.8466°
argument of perigee: 100.8869°
revolutions per day: 14.74365949
mean anomaly at epoch: 259.4706°
orbit number at epoch: 22641

The dashed part of the orbit path shows where the satellite is in the earth's shadow,  

DLR